Flag for Rwanda Weather past 2 weeks in Kigali, Rwanda

Now
68 °F

Passing clouds.


Feels Like: 68 °F
Forecast: 66 / 78 °F
Wind: No wind

Location: Kigali Airport

Current Time: Aug 1, 2015 at 8:39:12 AM

Latest Report: Aug 1, 2015 at 8:00 AM


Visibility: N/A

Pressure: 30.18 "Hg (25.18 "Hg at 1555m altitude)

Humidity: 78%

Dew point: 61 °F

Location of KigaliLocation

Historic Weather in Kigali — Graph

°F

Kigali temperature yesterday

Maximum temperature yesterday: 82 °F (at 12:30 PM)
Minimum temperature yesterday: 63 °F (at 5:00 AM)
Average temperature yesterday: 72 °F

Past Weeks' High & Low Weather Summary

 TemperatureHumidityPressure
High88 °F (Jul 17, 3:30 PM)100% (Jul 27, 7:30 AM)30.24 "Hg (Jul 27, 7:30 AM)
Low59 °F (Jul 24, 6:30 AM)29% (Jul 28, 3:30 PM)30.04 "Hg (Jul 25, 4:00 PM)
Average74 °F57%30.14 "Hg
* Reported Jul 17 7:00 AM — Aug 1 7:30 AM, Kigali, Weather by CustomWeather, © 2015

Note: Actual official high and low records may vary slightly from our data, if they occured in-between our weather recording intervals... More about our weather records

Advertising

Kigali weather history for previous 24 hours

 ConditionsComfort  
Time TempWeatherWind HumidityBarometerVisibility
7:30 AM
Sat, Aug 1
64 °FPassing clouds.No wind88%30.18 "HgN/A
7:00 AM61 °FPassing clouds.No wind100%30.15 "HgN/A
6:00 AM61 °FClear.No wind94%30.15 "Hg10 mi
5:00 AM63 °FClear.No wind88%30.12 "Hg10 mi
4:00 AM63 °FClear.No wind88%30.12 "Hg10 mi
3:00 AM63 °FClear.3 mph94%30.12 "Hg10 mi
2:30 AM64 °FClear.No wind88%30.12 "Hg10 mi
2:00 AM64 °FClear.No wind88%30.12 "Hg10 mi
1:30 AM64 °FClear.No wind94%30.18 "Hg10 mi
1:00 AM64 °FClear.No wind94%30.18 "Hg10 mi
12:30 AM66 °FClear.No wind83%30.18 "Hg10 mi
12:00 AM66 °FClear.No wind83%30.18 "Hg10 mi
11:30 PM
Fri, Jul 31
68 °FPassing clouds.No wind83%30.18 "HgN/A
11:00 PM68 °FPassing clouds.No wind83%30.18 "HgN/A
10:30 PM68 °FPassing clouds.3 mph83%30.18 "HgN/A
10:00 PM68 °FPassing clouds.3 mph88%30.18 "HgN/A
9:30 PM68 °FPassing clouds.3 mph83%30.18 "HgN/A
9:00 PM68 °FPassing clouds.No wind88%30.15 "HgN/A
8:30 PM68 °FPassing clouds.No wind78%30.15 "HgN/A
8:00 PM66 °FPassing clouds.5 mph88%30.12 "HgN/A
7:30 PM66 °FThundershowers. Passing clouds.5 mph88%30.12 "Hg5 mi
7:00 PM68 °FThunderstorms. Passing clouds.5 mph83%30.12 "Hg5 mi
6:30 PM75 °FThunderstorms. Passing clouds.7 mph69%30.09 "Hg5 mi
6:00 PM77 °FScattered clouds.9 mph57%30.07 "HgN/A
5:30 PM79 °FScattered clouds.9 mph54%30.07 "HgN/A
5:00 PM81 °FScattered clouds.8 mph54%30.07 "HgN/A
4:30 PM82 °FScattered clouds.12 mph51%30.07 "HgN/A
4:00 PM79 °FScattered clouds.14 mph54%30.07 "HgN/A
3:30 PM81 °FScattered clouds.3 mph51%30.07 "HgN/A
3:00 PM82 °FScattered clouds.3 mph42%30.07 "HgN/A
2:30 PM81 °FScattered clouds.7 mph48%30.09 "HgN/A
2:00 PM81 °FScattered clouds.6 mph48%30.09 "HgN/A
1:30 PM81 °FScattered clouds.6 mph48%30.12 "HgN/A
1:00 PM81 °FScattered clouds.9 mph48%30.12 "HgN/A
12:30 PM82 °FScattered clouds.5 mph48%30.15 "HgN/A
12:00 PM81 °FScattered clouds.5 mph51%30.18 "HgN/A
11:30 AM79 °FBroken clouds.5 mph54%30.18 "HgN/A
11:00 AM77 °FBroken clouds.No wind57%30.21 "HgN/A
10:30 AM75 °FBroken clouds.No wind61%30.21 "HgN/A
10:00 AM77 °FPassing clouds.No wind61%30.21 "HgN/A
9:30 AM75 °FPassing clouds.No wind61%30.21 "Hg6 mi
9:00 AM72 °FScattered clouds.No wind69%30.21 "Hg5 mi
8:30 AM70 °FPassing clouds.No wind73%30.21 "Hg5 mi
8:00 AM68 °FPassing clouds.No wind78%30.21 "Hg5 mi
Weather by CustomWeather, © 2015

See weather overviewHow to use our weather pages